World > North America > United States > Washington

Chelan, Washington Regional Weather

Lat: 47.85N, Lon: 120.03W
Wx Zone: WAZ041
Feedback

Chelan, WA Regional Weather

Expires:201912091100;;083470
ASUS46 KSEW 091020
RWRWA 

WASHINGTON REGIONAL WEATHER ROUNDUP
NATIONAL WEATHER SERVICE SEATTLE WA
200 AM PST MON DEC 09 2019

NOTE:"FAIR" INDICATES FEW OR NO CLOUDS BELOW 12,000 FEET WITH NO 
SIGNIFICANT WEATHER AND/OR OBSTRUCTIONS TO VISIBILITY.


WAZ026-027-041>044-520-521-091100-
EAST SLOPES
  
CITY           SKY/WX    TMP DP  RH WIND       PRES   REMARKS
OMAK           CLOUDY    32  22  66 N15       30.24R WCI  22          
WENATCHEE      PTCLDY    31  28  89 W3        30.21R                  
ELLENSBURG     PTCLDY    28  24  85 E3        30.18F FOG              
YAKIMA         FOG       32  30  92 SW5       30.23S VSB 1/2          
SUNNYSIDE ARPT CLOUDY    37  37  99 CALM      30.24  FOG              
YAKIMA TC      FOG       30  29  95 CALM      30.20S VSB 3/8          
$$


SKY/WX - Weather  TMP - Temperature  DP - Dew Point  RH - Relative Humidity
WIND - Wind Direction/Speed PRES - Barometric Pressure VSB - Visibility
WCI - Wind Chill Index E13G22 Wind - East Wind 13 mph/Gusts of 22 mph